Simultaneous Nadir Overpasses (SNOs) Predictions

Prediction of SNOs between NPP and TERRA Satellite Orbit:

Table of predicted SNOs for the next 14.0 days since TLE Epoch: 5/7/2016
Index Date (NPP) Time (NPP) Lat,Lon (NPP) SZA (NPP ) Date (TERRA) Time (TERRA) Lat,Lon (TERRA) SZA (TERRA ) Distance(km) Time Diff (sec)
1 05/07/2016 18:23:24 -68.52, 82.86 128.68 05/07/2016 18:24:23 -68.51, 82.90 128.69 1.80 59
2 05/07/2016 19:14:07 68.34,-109.59 51.13 05/07/2016 19:13:51 68.35,-109.65 51.14 3.01 16
3 05/07/2016 20:04:40 -67.78, 58.43 129.45 05/07/2016 20:03:29 -67.80, 57.33 129.42 46.44 71
4 05/10/2016 10:40:18 -68.44,-161.27 129.47 05/10/2016 10:40:56 -68.45,-161.31 129.46 1.87 38
5 05/10/2016 11:31:02 68.31, 6.21 50.40 05/10/2016 11:30:23 68.34, 6.21 50.42 3.32 39
6 05/13/2016 02:06:40 69.04, 146.38 50.47 05/13/2016 02:07:50 68.93, 147.52 50.36 47.05 70
7 05/13/2016 02:57:12 -68.42, -45.47 130.16 05/13/2016 02:57:27 -68.44, -45.45 130.15 2.03 15
8 05/13/2016 03:47:56 68.29, 122.00 49.70 05/13/2016 03:46:55 68.27, 121.99 49.68 2.65 61
9 05/15/2016 18:23:25 68.48, -97.11 49.27 05/15/2016 18:24:29 68.51, -97.13 49.30 3.28 64
10 05/15/2016 19:14:07 -68.40, 70.32 130.82 05/15/2016 19:13:59 -68.41, 70.39 130.81 2.98 8
11 05/15/2016 20:04:44 67.90,-121.73 48.67 05/15/2016 20:03:32 67.96,-122.51 48.73 33.07 72
12 05/18/2016 10:40:20 68.47, 18.68 48.66 05/18/2016 10:41:01 68.48, 18.70 48.67 1.14 41
13 05/18/2016 11:31:01 -68.33,-173.82
